Location: Bailen
(14.1842°N, 120.7958°E)
Time: 17:44:03
(UTC+00:00)

Cosmos 1371 Rocket - Pass Details

Date: 12 January 2026
Orbit: 751 x 784 km, 74.0° (Epoch: 17 February)

Event Time Altitude Azimuth Distance (km) Brightness Sun altitude
Exits shadow 20:51:58 44° 251° (WSW) 1,023 4.3 -21.9°
Drops below altitude 10° 20:56:37 10° 187° (S) 2,267 6.6 -20.9°
Sets 20:59:04 0° 181° (S) 3,193 7.4 -20.3°
